Regional Weather Roundup
Issued by NWS

Home | Current Version | Previous Version | Text Only | Print | Product List | Glossary On
Versions: 1 2 3 4 5 6 7 8 9 10 11 12 13 14 15 16 17 18 19 20 21 22 23 24 25 26 27 28 29 30 31 32 33 34 35 36 37 38 39 40 41 42 43 44 45 46 47 48 49
000
ASUS45 KREV 300810
RWRNV
NEVADA REGIONAL WEATHER ROUNDUP
NATIONAL WEATHER SERVICE RENO NV
100 AM PDT SUN AUG 30 2015

NOTE: "FAIR" INDICATES FEW OR NO CLOUDS BELOW 12,000 FEET WITH NO
SIGNIFICANT WEATHER AND/OR OBSTRUCTIONS TO VISIBILITY.

NVZ001-003-004-300900-
WESTERN NEVADA

CITY           SKY/WX    TMP DP  RH WIND       PRES   REMARKS
RENO           PTCLDY    64  46  52 CALM      30.05S
CARSON CITY    FAIR      63  41  45 CALM      30.08R
MINDEN         FAIR      54  41  62 NE3       30.07S
PYRAMID LAKE     N/A     66 N/A N/A SW5         N/A
FALLON         PTCLDY    69  41  36 N8        30.00S
LOVELOCK       CLEAR     66  45  46 W7        30.01S
HAWTHORNE      CLEAR     73  39  29 S15       30.00F
$$

NVZ002-CAZ072-073-300900-
NORTHERN AND CENTRAL SIERRA

CITY           SKY/WX    TMP DP  RH WIND       PRES   REMARKS
S. LAKE TAHOE  CLEAR     60  44  55 S14       30.16R
TRUCKEE        CLEAR     55  43  62 S7        30.15R
SQUAW VLY 8000   N/A     48  43  81 W8          N/A
SUSANVILLE     CLEAR     55  36  47 SW5       30.07R
BLUE CANYON    CLEAR     55  48  77 SE6       30.14S
MAMMOTH LAKES  FAIR      55  36  47 CALM      30.23R
BRIDGEPORT     FAIR      59  42  53 S5        30.17R
$$

NVZ030-031-036-300900-
NORTHERN NEVADA

CITY           SKY/WX    TMP DP  RH WIND       PRES   REMARKS
ELKO           MOCLDY    62  40  44 W5        30.04R
WINNEMUCCA     NOT AVBL
WENDOVER       CLOUDY    81  36  19 NW26G35   29.90R
$$

NVZ035-037-300900-
CENTRAL NEVADA

CITY           SKY/WX    TMP DP  RH WIND       PRES   REMARKS
ELY            PTCLDY    68  35  29 SW14      30.11R
EUREKA           N/A     62  36  37 S3        30.11R
$$

NVZ013-014-300900-
SOUTH CENTRAL NEVADA

CITY           SKY/WX    TMP DP  RH WIND       PRES   REMARKS
TONOPAH        MOCLDY    73  39  29 MISG      30.07R
$$

NVZ017-020-022-300900-
SOUTHERN NEVADA

CITY           SKY/WX    TMP DP  RH WIND       PRES   REMARKS
LAS VEGAS      CLEAR     92  37  14 SW7       29.81R
N. LAS VEGAS   CLEAR     93  39  15 SW8       29.83R
NELLIS AFB     CLEAR     92  40  16 S12       29.80S
HENDERSON      CLEAR     87  40  19 VRB6      29.89S
MERCURY        PTCLDY    83  35  18 CALM      29.92S
$$


USA.gov is the U.S. government's official web portal to all federal, state and local government web resources and services.